[[{"header":{"parameterUnit":"m.s-1","parameterCategory":1,"la1":30.2991,"la2":30.254,"lo1":-89.0895,"lo2":-89.0444,"dy":0.0017,"dx":0.0017,"nx":28,"ny":28,"refTime":"2023-11-02T09:00:00:Z","depth":0,"parameterNumber":2,"parameterNumberName":"U-component_of_WINDS"},"data":[0,0,0,0,0,0,0,0,0,0,0,0,0,0,0,0,0,0,0,0,0,0,0,0,0,0,0,0,0,0,0,0,0,0,0,0,0,0,0,0,0,0,0,0,0,0,0,0,0,0,0,0,0,0,0,0,0,0,-4.09,-4.0901,0,-4.1032,-4.1033,-4.1035,-4.0955,-4.0951,-4.0947,-4.0943,-4.1081,-4.1088,-4.1095,0,0,0,0,0,0,0,0,0,0,0,0,0,-4.0581,-4.0587,-4.0899,-4.0901,-4.0903,-4.1031,-4.1033,-4.1035,-4.0955,-4.0951,-4.0946,-4.0942,-4.1078,-4.1087,-4.1095,0,0,0,0,0,0,0,0,0,0,0,0,0,-4.0717,-4.0589,-4.0899,-4.0878,-4.0878,-4.1031,-4.1033,-4.1035,-4.0956,-4.095,-4.0945,-4.0939,-4.1075,-4.1086,-4.1097,-4.1278,0,0,-4.113,-4.1134,0,0,0,0,0,0,0,0,-4.0709,-4.0728,-4.088,-4.088,-4.088,-4.0971,-4.0971,-4.1117,-4.0958,-4.0927,-4.0943,-4.0937,-4.1049,-4.1061,-4.1099,-4.1285,-4.129,-4.1131,-4.1137,-4.1142,-4.1145,0,0,0,0,0,0,0,-4.07,-4.0722,-4.0952,-4.0882,-4.0882,-4.0863,-4.0876,-4.0998,-4.1018,-4.0929,-4.0923,-4.094,-4.1048,-4.1089,-4.1101,-4.1292,-4.113,-4.114,-4.1147,-4.1151,-4.1635,-4.1641,0,0,0,0,0,0,-4.0692,-4.0715,-4.0947,-4.0956,-4.0778,-4.0874,-4.0888,-4.0947,-4.1017,-4.1022,-4.0945,-4.0936,-4.1073,-4.1089,-4.1106,-4.1323,-4.1142,-4.1152,-4.1158,-4.1628,-4.1636,-4.1643,0,0,0,0,0,0,-4.0685,-4.0713,-4.0942,-4.0834,-4.0862,-4.0885,-4.0952,-4.0953,-4.0994,-4.1029,-4.1032,-4.0983,-4.1069,-4.1091,-4.1236,-4.1327,-4.1157,-4.1167,-4.1621,-4.1631,-4.164,-4.1759,0,0,0,0,0,0,-4.0676,-4.0711,-4.078,-4.0836,-4.0868,-4.1069,-4.0958,-4.096,-4.1012,-4.1002,-4.1065,-4.107,-4.1066,-4.122,-4.1247,-4.1339,-4.1175,-4.1613,-4.1625,-4.1637,-4.1747,-4.1772,-4.1792,0,0,0,0,0,-4.0665,-4.0808,-4.0784,-4.0812,-4.0954,-4.1075,-4.1093,-4.1085,-4.102,-4.1089,-4.1112,-4.1068,-4.1313,-4.1236,-4.1265,-4.1362,-4.1607,-4.1622,-4.1636,-4.1737,-4.1767,-4.1792,0,0,0,0,0,0,-4.0762,-4.0815,-4.0788,-4.0954,-4.1011,-4.1061,-4.1148,-4.1117,-4.1193,-4.118,-4.1168,-4.1183,-4.1334,-4.1362,-4.1276,-4.1541,-4.145,-4.1471,-4.1517,-4.1546,-4.1568,-4.1557,-4.1184,0,0,0,0,0,-4.0803,-4.0896,-4.0938,-4.108,-4.111,-4.1125,-4.1177,-4.1166,-4.1224,-4.1248,-4.1281,-4.134,-4.143,-4.1489,-4.1574,-4.1751,-4.1764,-4.1832,-4.1855,-4.1873,-4.1891,-4.1988,-4.2019,-4.169,-4.169,-4.169,0,0,-4.0888,-4.0929,-4.0988,-4.1101,-4.1143,-4.124,-4.1145,-4.1252,-4.1324,-4.1264,-4.1403,-4.143,-4.1495,-4.1657,-4.173,-4.1685,-4.1985,-4.1892,-4.1906,-4.1914,-4.2006,-4.2037,-4.2064,-4.17,-4.1698,-4.1696,0,0,-4.1093,-4.1133,-4.1255,-4.13,-4.1365,-4.1375,-4.1404,-4.146,-4.1476,-4.1615,-4.1572,-4.1659,-4.1814,-4.1862,-4.1907,-4.2132,-4.2094,-4.216,-4.2278,-4.2372,-4.2398,-4.2421,-4.2501,-4.253,-4.2178,-4.2178,-4.2178,0,-4.119,-4.1334,-4.1323,-4.1433,-4.1484,-4.1434,-4.1559,-4.1603,-4.1694,-4.173,-4.1679,-4.1874,-4.1914,-4.2087,-4.2142,-4.218,-4.2214,-4.2152,-4.2395,-4.2418,-4.2439,-4.2515,-4.2546,-4.2186,-4.2185,-4.2184,-4.2183,0,-4.1451,-4.1552,-4.1644,-4.1731,-4.1793,-4.191,-4.1917,-4.1981,-4.1966,-4.1981,-4.2124,-4.2171,-4.2264,-4.2305,-4.2291,-4.2477,-4.2447,-4.2396,-4.2303,-4.2478,-4.255,-4.2579,-4.2196,-4.2194,-4.2192,-4.219,0,0,-4.1719,-4.18,-4.1833,-4.1873,-4.1942,-4.202,-4.2136,-4.2227,-4.2282,-4.2347,-4.2444,-4.2578,-4.2531,-4.2582,-4.2574,-4.2657,-4.2832,-4.2595,-4.2597,-4.2637,-4.304,-4.3077,-4.3111,-4.2808,-4.2814,-4.2818,-4.3034,0,-4.1927,-4.2128,-4.2122,-4.2309,-4.2402,-4.2357,-4.2458,-4.2512,-4.253,-4.2613,-4.2632,-4.2727,-4.2659,-4.2689,-4.2769,-4.2793,-4.2912,-4.2778,-4.2899,-4.2903,-4.2883,-4.3149,-4.3188,-4.339,-4.3062,-4.3067,-4.3071,0,-4.2196,-4.2269,-4.2466,-4.2522,-4.2561,-4.2652,-4.2735,-4.2815,-4.2876,-4.2883,-4.2941,-4.292,-4.3038,-4.2944,-4.3107,-4.3016,-4.3066,-4.3085,-4.3093,-4.3103,-4.2997,-4.3166,-4.3454,-4.3485,-4.3115,-4.3111,-4.3108,0,-4.2372,-4.252,-4.2656,-4.2692,-4.2761,-4.2825,-4.2857,-4.2913,-4.2968,-4.3042,-4.3078,-4.3165,-4.3213,-4.3281,-4.3284,-4.3215,-4.345,-4.3356,-4.346,-4.346,-4.351,-4.3507,-4.381,-4.3544,-4.3543,-4.3543,-4.3542,0,-4.2604,-4.2726,-4.2736,-4.282,-4.2956,-4.2948,-4.3083,-4.3109,-4.3159,-4.3248,-4.3215,-4.33,-4.3299,-4.3386,-4.3389,-4.3525,-4.3547,-4.3556,-4.3556,-4.3559,-4.3558,-4.359,-4.3576,-4.3551,-4.3549,-4.3547,-4.3546,0,-4.2822,-4.2834,-4.298,-4.3033,-4.305,-4.3148,-4.3194,-4.3274,-4.3289,-4.3403,-4.3429,-4.3454,-4.3554,-4.3564,-4.3681,-4.3684,-4.3847,-4.3832,-4.3826,-4.3823,-4.3927,-4.3917,-4.4261,-4.4306,-4.4011,-4.4014,-4.4016,0,-4.297,-4.3062,-4.3126,-4.3183,-4.3218,-4.3311,-4.3367,-4.3364,-4.3425,-4.3502,-4.3574,-4.3671,-4.3748,-4.3911,-4.394,-4.403,-4.4016,-4.4131,-4.4029,-4.403,-4.4018,-4.4012,-4.4021,-4.415,-4.4153,-4.4156,-4.4158,0,-4.323,-4.3231,-4.3313,-4.3398,-4.3466,-4.3533,-4.3596,-4.3645,-4.365,-4.372,-4.3822,-4.3882,-4.4002,-4.4099,-4.4187,-4.4221,-4.4192,-4.419,-4.4219,-4.4223,-4.4215,-4.4221,-4.3879,-4.4182,-4.4179,-4.4178,-4.4176,-4.4175,-4.3416,-4.3497,-4.3554,-4.3647,-4.3694,-4.3754,-4.3832,-4.3858,-4.3942,-4.4038,-4.4032,-4.4145,-4.4206,-4.4321,-4.4362,-4.4451,-4.4413,-4.4455,-4.4465,-4.4476,-4.4486,-4.4202,-4.4468,-4.4467,-4.4466,-4.4466,-4.4465,0,-4.3674,-4.3709,-4.3795,-4.3884,-4.3957,-4.3922,-4.399,-4.4055,-4.4154,-4.4212,-4.4289,-4.4407,-4.4502,-4.4539,-4.4631,-4.4696,-4.4685,-4.472,-4.4715,-4.4724,-4.4515,-4.448,-4.4728,-4.4728,-4.4728,-4.4728,-4.4728,-4.4728,-4.3817,-4.3951,-4.396,-4.4118,-4.4152,-4.4261,-4.4303,-4.4359,-4.4405,-4.4538,-4.4616,-4.4639,-4.469,-4.4786,-4.4872,-4.4881,-4.4916,-4.4958,-4.4961,-4.4765,-4.4738,-4.4713,-4.4681,-4.4966,-4.4966,-4.5162,-4.5164,-4.5165]},{"header":{"parameterUnit":"m.s-1","parameterCategory":1,"la1":30.2991,"la2":30.254,"lo1":-89.0895,"lo2":-89.0444,"dy":0.0017,"dx":0.0017,"nx":28,"ny":28,"refTime":"2023-11-02T09:00:00:Z","depth":0,"parameterNumber":3,"parameterNumberName":"V-component_of_WINDS"},"data":[0,0,0,0,0,0,0,0,0,0,0,0,0,0,0,0,0,0,0,0,0,0,0,0,0,0,0,0,0,0,0,0,0,0,0,0,0,0,0,0,0,0,0,0,0,0,0,0,0,0,0,0,0,0,0,0,0,0,-0.5497,-0.5497,0,-0.5545,-0.5546,-0.5546,-0.5533,-0.5532,-0.5531,-0.553,-0.5584,-0.5586,-0.5588,0,0,0,0,0,0,0,0,0,0,0,0,0,-0.5393,-0.5395,-0.5496,-0.5497,-0.5498,-0.5545,-0.5546,-0.5547,-0.5534,-0.5532,-0.5531,-0.553,-0.5583,-0.5586,-0.5588,0,0,0,0,0,0,0,0,0,0,0,0,0,-0.544,-0.5396,-0.5496,-0.5497,-0.5497,-0.5545,-0.5546,-0.5547,-0.5534,-0.5532,-0.5531,-0.5529,-0.5582,-0.5585,-0.5589,-0.564,0,0,-0.56,-0.5601,0,0,0,0,0,0,0,0,-0.5437,-0.5444,-0.5496,-0.5497,-0.5498,-0.5532,-0.5529,-0.5578,-0.5534,-0.552,-0.553,-0.5529,-0.5568,-0.5572,-0.5585,-0.5643,-0.5645,-0.56,-0.5602,-0.5603,-0.5604,0,0,0,0,0,0,0,-0.5434,-0.5442,-0.5516,-0.5497,-0.5498,-0.5495,-0.55,-0.5538,-0.5552,-0.5521,-0.552,-0.5526,-0.5568,-0.5582,-0.5586,-0.5646,-0.56,-0.5603,-0.5605,-0.5606,-0.5747,-0.5749,0,0,0,0,0,0,-0.543,-0.5439,-0.5514,-0.5517,-0.5463,-0.5498,-0.5504,-0.5522,-0.5551,-0.5554,-0.5527,-0.5525,-0.5576,-0.5582,-0.5588,-0.565,-0.5603,-0.5607,-0.5609,-0.5746,-0.5748,-0.5749,0,0,0,0,0,0,-0.5428,-0.5437,-0.5512,-0.5478,-0.5487,-0.5501,-0.5522,-0.5524,-0.5538,-0.5556,-0.5558,-0.5539,-0.5575,-0.5583,-0.5627,-0.5652,-0.5608,-0.5611,-0.5744,-0.5746,-0.5748,-0.5775,0,0,0,0,0,0,-0.5425,-0.5436,-0.5456,-0.5478,-0.5489,-0.555,-0.5524,-0.5526,-0.5543,-0.5541,-0.5567,-0.557,-0.5575,-0.5622,-0.563,-0.5656,-0.5614,-0.5742,-0.5745,-0.5748,-0.5772,-0.5778,-0.5783,0,0,0,0,0,-0.5421,-0.5462,-0.5457,-0.5466,-0.5514,-0.5552,-0.5558,-0.5562,-0.5545,-0.5565,-0.5577,-0.5569,-0.5647,-0.5626,-0.5636,-0.5663,-0.574,-0.5744,-0.5747,-0.5769,-0.5777,-0.5783,0,0,0,0,0,0,-0.5443,-0.5465,-0.546,-0.5508,-0.5528,-0.5549,-0.5575,-0.5569,-0.5595,-0.5592,-0.5596,-0.5602,-0.5647,-0.5659,-0.5635,-0.5713,-0.5691,-0.5697,-0.5704,-0.5712,-0.5717,-0.5714,-0.5617,0,0,0,0,0,-0.5453,-0.5482,-0.5499,-0.5541,-0.5551,-0.5561,-0.5578,-0.5578,-0.5599,-0.5608,-0.5623,-0.5644,-0.5673,-0.5693,-0.5721,-0.5772,-0.5778,-0.5795,-0.5801,-0.5805,-0.5811,-0.584,-0.5848,-0.5761,-0.5761,-0.5761,0,0,-0.5476,-0.5491,-0.5509,-0.5546,-0.5561,-0.5591,-0.5568,-0.5601,-0.5624,-0.5613,-0.5656,-0.5667,-0.5691,-0.5739,-0.5761,-0.5751,-0.5836,-0.581,-0.5814,-0.5817,-0.5844,-0.5852,-0.586,-0.5764,-0.5763,-0.5763,0,0,-0.5532,-0.5545,-0.5582,-0.5597,-0.562,-0.5626,-0.5634,-0.5656,-0.5663,-0.5705,-0.5698,-0.5724,-0.5774,-0.5792,-0.5807,-0.5867,-0.5862,-0.5876,-0.5906,-0.5934,-0.5941,-0.5947,-0.5969,-0.5977,-0.5881,-0.5881,-0.5881,0,-0.5557,-0.5601,-0.5601,-0.5634,-0.5651,-0.5641,-0.5678,-0.5693,-0.5724,-0.5736,-0.5723,-0.5785,-0.58,-0.5852,-0.5867,-0.5879,-0.589,-0.5874,-0.5939,-0.5945,-0.5951,-0.5973,-0.5981,-0.5883,-0.5882,-0.5882,-0.5882,0,-0.5631,-0.5661,-0.5688,-0.5717,-0.5736,-0.5771,-0.5777,-0.5796,-0.5794,-0.5802,-0.5845,-0.5862,-0.5893,-0.5905,-0.5904,-0.5957,-0.595,-0.5938,-0.5916,-0.5961,-0.5981,-0.599,-0.5885,-0.5884,-0.5884,-0.5884,0,0,-0.5705,-0.5732,-0.5742,-0.5755,-0.5778,-0.5802,-0.5836,-0.5865,-0.5882,-0.5903,-0.5932,-0.5973,-0.5962,-0.5979,-0.598,-0.6004,-0.6051,-0.5989,-0.599,-0.6002,-0.6111,-0.6122,-0.6131,-0.6046,-0.6048,-0.6049,-0.611,0,-0.5764,-0.5824,-0.5824,-0.5879,-0.5907,-0.5897,-0.5926,-0.5944,-0.5951,-0.5977,-0.5985,-0.6014,-0.5997,-0.6007,-0.603,-0.6041,-0.6074,-0.6036,-0.6075,-0.6077,-0.6072,-0.6141,-0.6153,-0.6209,-0.6118,-0.6119,-0.612,0,-0.5842,-0.5864,-0.5922,-0.594,-0.5952,-0.5978,-0.6005,-0.6028,-0.6048,-0.6052,-0.607,-0.6066,-0.6101,-0.6076,-0.6125,-0.6099,-0.6115,-0.6122,-0.6125,-0.613,-0.6103,-0.6151,-0.6227,-0.6236,-0.6132,-0.6131,-0.613,0,-0.5892,-0.5936,-0.5976,-0.5987,-0.6009,-0.6028,-0.6038,-0.6056,-0.6073,-0.6096,-0.6107,-0.6134,-0.6149,-0.617,-0.6174,-0.6155,-0.6223,-0.6198,-0.6229,-0.6229,-0.6246,-0.6245,-0.6328,-0.6252,-0.6252,-0.6252,-0.6252,0,-0.5959,-0.5995,-0.5999,-0.6024,-0.6063,-0.6062,-0.6102,-0.6111,-0.6126,-0.6153,-0.6145,-0.6171,-0.6173,-0.62,-0.6203,-0.6243,-0.625,-0.6254,-0.6255,-0.6256,-0.6256,-0.6269,-0.6266,-0.6254,-0.6254,-0.6253,-0.6253,0,-0.6023,-0.6027,-0.607,-0.6086,-0.6091,-0.612,-0.6134,-0.6158,-0.6163,-0.6197,-0.6205,-0.6213,-0.6244,-0.6249,-0.6285,-0.6287,-0.6336,-0.6332,-0.6329,-0.633,-0.636,-0.6358,-0.6455,-0.6468,-0.6383,-0.6383,-0.6384,0,-0.6067,-0.6094,-0.6113,-0.6129,-0.614,-0.6167,-0.6184,-0.6184,-0.6202,-0.6225,-0.6246,-0.6275,-0.6299,-0.6348,-0.6358,-0.6386,-0.6383,-0.6415,-0.6388,-0.6388,-0.6386,-0.6385,-0.6388,-0.6422,-0.6423,-0.6423,-0.6424,0,-0.6145,-0.6145,-0.6169,-0.6193,-0.6213,-0.6233,-0.6251,-0.6266,-0.6267,-0.6288,-0.6318,-0.6336,-0.6372,-0.6402,-0.6428,-0.6439,-0.6433,-0.6432,-0.6441,-0.6444,-0.6442,-0.6445,-0.6346,-0.6431,-0.643,-0.643,-0.6429,-0.6429,-0.6202,-0.6225,-0.6241,-0.6268,-0.6281,-0.6298,-0.6322,-0.6329,-0.6353,-0.6382,-0.638,-0.6413,-0.6431,-0.6466,-0.6479,-0.6506,-0.6496,-0.6508,-0.6511,-0.6515,-0.6519,-0.6435,-0.651,-0.651,-0.651,-0.651,-0.651,0,-0.628,-0.629,-0.6314,-0.6339,-0.636,-0.6349,-0.6369,-0.6388,-0.6417,-0.6433,-0.6456,-0.6491,-0.6518,-0.653,-0.6557,-0.6577,-0.6574,-0.6584,-0.6584,-0.6587,-0.6525,-0.6516,-0.6586,-0.6586,-0.6585,-0.6585,-0.6585,-0.6585,-0.6324,-0.6363,-0.6365,-0.641,-0.642,-0.6451,-0.6464,-0.6479,-0.6492,-0.6531,-0.6554,-0.656,-0.6575,-0.6603,-0.6628,-0.6631,-0.6642,-0.6654,-0.6655,-0.6599,-0.6591,-0.6584,-0.6575,-0.6656,-0.6656,-0.6715,-0.6715,-0.6716]}]]